Regional Weather Roundup
Issued by NWS

Home | Current Version | Previous Version | Graphics & Text | Print | Product List | Glossary On
Versions: 1 2 3 4 5 6 7 8 9 10 11 12 13 14 15 16 17 18 19 20 21 22 23 24 25 26 27 28 29 30 31 32 33 34 35 36 37 38 39 40 41 42 43 44 45 46 47 48 49 50
000
ASUS43 KIND 051909
RWRIN

WEATHER ROUNDUP FOR INDIANA
NATIONAL WEATHER SERVICE INDIANAPOLIS IN
200 PM EST FRI FEB 05 2016

NOTE: "FAIR" INDICATES FEW OR NO CLOUDS BELOW 12,000 FEET WITH NO
SIGNIFICANT WEATHER AND/OR OBSTRUCTIONS TO VISIBILITY.

* - STATION DOES NOT REPORT WEATHER SUCH AS PRECIPITATION OR FOG.

+ - STATION NOT QUALITY CONTROLLED BY THE NATIONAL WEATHER SERVICE.
    USE DATA WITH CAUTION...ESPECIALLY DEWPOINT AND RELATIVE
    HUMIDITY OBSERVATIONS.

INZ001>003-010>013-019-020-052000-
NORTHWEST INDIANA

CITY           SKY/WX    TMP DP  RH WIND       PRES   REMARKS
GARY /AIRPORT/ CLOUDY    34  25  69 N9        30.39R WCI  26
LA PORTE +     CLOUDY    33  30  90 NW8       30.32S FOG     WCI  26
MICHIGAN CITY+ CLOUDY    32  28  86 NW6       30.33S WCI  26
MONTICELLO +   CLOUDY    32  19  60 W8        30.34S WCI  24
RENSSELAER +   CLOUDY    32  25  74 W8        30.34F WCI  25
VALPARAISO     CLOUDY    32  25  75 N9        30.33S WCI  24

$$

LMZ046-743>745-052000-
SOUTHERN LAKE MICHIGAN

STATION/POSITION TIME  TEMP    WIND        PRES    WAVE
                       AIR SEA DIR/SP/G            HT
                 (UTC) (F)     (DEG/KT/KT) (MB)    (FT)
BURNS HARBOR     1800   30     340/ 11/ 14 1027.8F
MICHIGAN CITY    1800   30     300/ 15/ 17   N/A

$$

INZ004-005-014>016-021>024-052000-
NORTH CENTRAL INDIANA

CITY           SKY/WX    TMP DP  RH WIND       PRES   REMARKS
ELKHART          N/A     32  25  74 CALM      30.30F
GOSHEN         CLOUDY    33  24  69 W8        30.30F WCI  26
LOGANSPORT +   CLOUDY    32  21  64 W9        30.34F WCI  24
PERU/GRISSOM   CLOUDY    32  25  74 W12       30.31F WCI  23
ROCHESTER +    CLOUDY    32  23  69 W8        30.33S WCI  25
SOUTH BEND     CLOUDY    32  26  78 SW8       30.31F WCI  25
WARSAW +       CLOUDY    32  25  74 W5        30.31S WCI  27

$$

INZ006>009-017-018-025>027-052000-
NORTHEAST INDIANA

CITY           SKY/WX    TMP DP  RH WIND       PRES   REMARKS
ANGOLA *+      PTSUNNY   36  23  60 SW9       30.28F
AUBURN +       PTSUNNY   36  23  60 W5        30.30S
FORT WAYNE     PTSUNNY   36  25  64 SW10      30.31F
HUNTINGTON +   MOSUNNY   36  21  53 SW10      30.31F

$$

INZ028-029-035-036-043>045-051>053-052000-
WEST CENTRAL INDIANA

CITY           SKY/WX    TMP DP  RH WIND       PRES   REMARKS
GREENCASTLE +  SUNNY     36  19  51 W9        30.34F
LAFAYETTE      CLOUDY    31  22  69 W7        30.36S WCI  24
TERRE HAUTE    MOSUNNY   33  25  72 NW12      30.38F WCI  24

$$

INZ030>032-037>040-046>048-054>057-064-065-052000-
CENTRAL INDIANA

CITY           SKY/WX    TMP DP  RH WIND       PRES   REMARKS
COLUMBUS       SUNNY     41  23  48 S10       30.35F
FRANKFORT +    CLOUDY    32  20  59 W10       30.36S WCI  24
GREENWOOD *+   SUNNY     43  27  52 SW6       30.33F
INDIANAPOLIS   MOSUNNY   40  21  46 W15       30.32F
-EAGLE CREEK   SUNNY     39  23  52 VRB6G16   30.32F
KOKOMO *+        N/A     34  25  69 W12       30.33S WCI  25
MARION +       PTSUNNY   36  18  48 W13       30.32F
MT COMFORT *+  SUNNY     41  25  52 SW12      30.32F
SHELBYVILLE    SUNNY     41  24  51 S8        30.32F
ZIONSVILLE +   MOSUNNY   35  26  68 W10G17    30.33F WCI  27

$$

INZ033-034-041-042-049-050-058-059-052000-
EAST CENTRAL INDIANA

CITY           SKY/WX    TMP DP  RH WIND       PRES   REMARKS
MUNCIE         MOSUNNY   41  23  48 SW10      30.30F

$$

INZ060-061-067>069-081>083-085>088-052000-
SOUTHWEST INDIANA

CITY           SKY/WX    TMP DP  RH WIND       PRES   REMARKS
EVANSVILLE     CLOUDY    47  26  44 S8        30.39F
HUNTINGBURG *+ CLOUDY    45  27  49 SW10      30.38F
WASHINGTON +   SUNNY     42  24  47 W10       30.37F

$$

INZ062-063-066-070>080-084-089>092-052000-
SOUTH CENTRAL AND SOUTHEAST INDIANA

CITY           SKY/WX    TMP DP  RH WIND       PRES   REMARKS
BEDFORD +      SUNNY     45  23  42 SW8       30.35
BLOOMINGTON    SUNNY     41  24  51 SW9       30.34F
MADISON *+     SUNNY     43  19  39 S9        30.38F
NORTH VERNON + SUNNY     43  19  39 SW9       30.35F
SEYMOUR +      SUNNY     45  25  45 SW13      30.35F

$$




USA.gov is the U.S. government's official web portal to all federal, state and local government web resources and services.